Location: Cheching
(60.0667°N, 164.2167°W)
Time: 11:48:25
(UTC+00:00)

UNISAT 6 - Pass Details

Date: 17 January 2021
Orbit: 607 x 687 km, 97.7° (Epoch: 24 February)

Event Time Altitude Azimuth Distance (km) Brightness Sun altitude
Rises 18:21:24 0° 192° (SSW) 2,862 ? -9.0°
Reaches altitude 10° 18:23:45 10° 203° (SSW) 1,966 ? -8.7°
Maximum altitude 18:27:34 31° 266° (W) 1,090 ? -8.3°
Drops below altitude 10° 18:31:27 10° 330° (NNW) 2,003 ? -7.9°
Enters shadow 18:33:06 - 338° (NNW) 2,624 ? -7.7°
